| time (UTC) | temp F | wind direction | speed knots | gust knots | rain 1hr in | rain 24hr in | rain mn in | humidity % | barometer mb |
| 20260506015758 | 69 | 169 | 1.7 | 13.0 | 0.00 | 0.00 | 0.00 | 52 | 1003.3 |
| 20260506015258 | 69 | 126 | 1.7 | 10.4 | 0.00 | 0.00 | 0.00 | 52 | 1003.3 |
| 20260506014759 | 69 | 198 | 4.3 | 4.3 | 0.00 | 0.00 | 0.00 | 52 | 1003.3 |
| 20260506014259 | 69 | 220 | 4.3 | 14.8 | 0.00 | 0.00 | 0.00 | 52 | 1003.2 |
| 20260506013758 | 69 | 150 | 7.8 | 14.8 | 0.00 | 0.00 | 0.00 | 52 | 1003.2 |
| 20260506013259 | 70 | 193 | 4.3 | 7.8 | 0.00 | 0.00 | 0.00 | 51 | 1003.2 |
| 20260506012758 | 70 | 159 | 1.7 | 13.9 | 0.00 | 0.00 | 0.00 | 51 | 1003.0 |
| 20260506012259 | 70 | 196 | 6.1 | 13.9 | 0.00 | 0.00 | 0.00 | 50 | 1003.0 |
| 20260506011758 | 70 | 162 | 3.5 | 13.9 | 0.00 | 0.00 | 0.00 | 50 | 1003.0 |
| 20260506011258 | 70 | 167 | 2.6 | 12.2 | 0.00 | 0.00 | 0.00 | 50 | 1002.9 |
| 20260506010759 | 70 | 189 | 1.7 | 8.7 | 0.00 | 0.00 | 0.00 | 49 | 1002.9 |
| 20260506010258 | 71 | 143 | 5.2 | 8.7 | 0.00 | 0.00 | 0.00 | 47 | 1002.9 |
| 20260506005758 | 71 | 131 | 4.3 | 10.4 | 0.00 | 0.00 | 0.00 | 46 | 1002.8 |
| 20260506005258 | 71 | 207 | 7.8 | 10.4 | 0.00 | 0.00 | 0.00 | 46 | 1002.8 |
| 20260506004759 | 71 | 184 | 0.9 | 5.2 | 0.00 | 0.00 | 0.00 | 46 | 1002.8 |
| 20260506004259 | 72 | 191 | 4.3 | 13.9 | 0.00 | 0.00 | 0.00 | 45 | 1002.6 |
| 20260506003759 | 72 | 189 | 2.6 | 13.9 | 0.00 | 0.00 | 0.00 | 46 | 1002.6 |
| 20260506003258 | 72 | 165 | 0.9 | 8.7 | 0.00 | 0.00 | 0.00 | 45 | 1002.6 |
| 20260506002759 | 72 | 125 | 3.5 | 11.3 | 0.00 | 0.00 | 0.00 | 45 | 1002.3 |
| 20260506002258 | 72 | 96 | 1.7 | 10.4 | 0.00 | 0.00 | 0.00 | 45 | 1002.3 |
| 20260506001758 | 72 | 167 | 3.5 | 10.4 | 0.00 | 0.00 | 0.00 | 45 | 1002.3 |
| 20260506001258 | 72 | 176 | 1.7 | 15.6 | 0.00 | 0.00 | 0.00 | 45 | 1002.6 |
| 20260506000758 | 72 | 195 | 1.7 | 15.6 | 0.00 | 0.00 | 0.00 | 45 | 1002.6 |
| 20260506000258 | 72 | 198 | 5.2 | 13.0 | 0.00 | 0.00 | 0.00 | 45 | 1002.6 |
| 20260505235758 | 72 | 163 | 1.7 | 11.3 | 0.00 | 0.00 | 0.00 | 44 | 1002.4 |
| 20260505235258 | 73 | 209 | 8.7 | 11.3 | 0.00 | 0.00 | 0.00 | 44 | 1002.4 |
| 20260505234759 | 73 | 300 | 1.7 | 11.3 | 0.00 | 0.00 | 0.00 | 44 | 1002.4 |
| 20260505234259 | 73 | 280 | 4.3 | 17.4 | 0.00 | 0.00 | 0.00 | 43 | 1002.3 |
| 20260505233758 | 73 | 223 | 3.5 | 17.4 | 0.00 | 0.00 | 0.00 | 43 | 1002.3 |
| 20260505233258 | 73 | 203 | 8.7 | 17.4 | 0.00 | 0.00 | 0.00 | 43 | 1002.3 |
| 20260505232758 | 73 | 172 | 4.3 | 15.6 | 0.00 | 0.00 | 0.00 | 41 | 1002.3 |
| 20260505232258 | 74 | 176 | 8.7 | 13.0 | 0.00 | 0.00 | 0.00 | 41 | 1002.3 |
| 20260505231759 | 74 | 171 | 4.3 | 13.0 | 0.00 | 0.00 | 0.00 | 41 | 1002.3 |
| 20260505231258 | 74 | 197 | 4.3 | 15.6 | 0.00 | 0.00 | 0.00 | 41 | 1002.4 |
| 20260505230759 | 74 | 175 | 8.7 | 15.6 | 0.00 | 0.00 | 0.00 | 41 | 1002.4 |
| 20260505230258 | 74 | 186 | 1.7 | 10.4 | 0.00 | 0.00 | 0.00 | 41 | 1002.4 |
| 20260505225758 | 75 | 200 | 3.5 | 18.2 | 0.00 | 0.00 | 0.00 | 40 | 1002.1 |
| 20260505225258 | 75 | 205 | 6.1 | 18.2 | 0.00 | 0.00 | 0.00 | 39 | 1002.1 |
| 20260505224758 | 75 | 197 | 5.2 | 18.2 | 0.00 | 0.00 | 0.00 | 39 | 1002.1 |
| 20260505224258 | 75 | 149 | 7.8 | 13.9 | 0.00 | 0.00 | 0.00 | 39 | 1002.0 |
| 20260505223759 | 76 | 230 | 5.2 | 13.9 | 0.00 | 0.00 | 0.00 | 40 | 1002.0 |
| 20260505223258 | 76 | 194 | 2.6 | 13.9 | 0.00 | 0.00 | 0.00 | 40 | 1002.0 |
| 20260505222758 | 76 | 234 | 7.8 | 13.9 | 0.00 | 0.00 | 0.00 | 40 | 1002.2 |
| 20260505222258 | 76 | 195 | 3.5 | 13.9 | 0.00 | 0.00 | 0.00 | 38 | 1002.2 |
| 20260505221759 | 76 | 185 | 4.3 | 11.3 | 0.00 | 0.00 | 0.00 | 39 | 1002.2 |
| 20260505221259 | 76 | 213 | 1.7 | 13.0 | 0.00 | 0.00 | 0.00 | 39 | 1002.0 |
| 20260505220758 | 76 | 259 | 2.6 | 13.0 | 0.00 | 0.00 | 0.00 | 40 | 1002.0 |
| 20260505220259 | 76 | 195 | 4.3 | 11.3 | 0.00 | 0.00 | 0.00 | 39 | 1002.0 |
| 20260505215758 | 76 | 252 | 1.7 | 14.8 | 0.00 | 0.00 | 0.00 | 40 | 1002.2 |
| 20260505215258 | 76 | 174 | 6.1 | 14.8 | 0.00 | 0.00 | 0.00 | 39 | 1002.2 |
| 20260505214758 | 76 | 238 | 5.2 | 13.9 | 0.00 | 0.00 | 0.00 | 39 | 1002.2 |
| 20260505214258 | 76 | 214 | 2.6 | 15.6 | 0.00 | 0.00 | 0.00 | 40 | 1002.1 |
| 20260505213758 | 76 | 245 | 5.2 | 13.0 | 0.00 | 0.00 | 0.00 | 39 | 1002.1 |
| 20260505213258 | 76 | 234 | 4.3 | 4.3 | 0.00 | 0.00 | 0.00 | 40 | 1002.1 |
| 20260505212759 | 76 | 185 | 2.6 | 11.3 | 0.00 | 0.00 | 0.00 | 41 | 1002.0 |
| 20260505212259 | 76 | 227 | 1.7 | 11.3 | 0.00 | 0.00 | 0.00 | 40 | 1002.0 |
| 20260505211758 | 76 | 184 | 5.2 | 11.3 | 0.00 | 0.00 | 0.00 | 39 | 1002.0 |
| 20260505211258 | 76 | 195 | 11.3 | 19.1 | 0.00 | 0.00 | 0.00 | 41 | 1001.7 |
| 20260505210758 | 76 | 162 | 2.6 | 19.1 | 0.00 | 0.00 | 0.00 | 39 | 1001.7 |
| 20260505210259 | 76 | 274 | 7.8 | 19.1 | 0.00 | 0.00 | 0.00 | 39 | 1001.7 |
| 20260505205758 | 76 | 257 | 5.2 | 15.6 | 0.00 | 0.00 | 0.00 | 39 | 1001.7 |
| 20260505205258 | 76 | 192 | 6.1 | 12.2 | 0.00 | 0.00 | 0.00 | 39 | 1001.7 |
| 20260505204758 | 76 | 200 | 3.5 | 11.3 | 0.00 | 0.00 | 0.00 | 40 | 1001.7 |
| 20260505204258 | 76 | 229 | 5.2 | 13.9 | 0.00 | 0.00 | 0.00 | 39 | 1001.7 |
| 20260505203759 | 77 | 278 | 7.8 | 13.0 | 0.00 | 0.00 | 0.00 | 38 | 1001.7 |
| 20260505203258 | 77 | 242 | 3.5 | 11.3 | 0.00 | 0.00 | 0.00 | 38 | 1001.7 |
| 20260505202758 | 78 | 219 | 5.2 | 13.9 | 0.00 | 0.00 | 0.00 | 39 | 1001.8 |
| 20260505202258 | 77 | 262 | 3.5 | 13.9 | 0.00 | 0.00 | 0.00 | 39 | 1001.8 |
| 20260505201758 | 77 | 205 | 5.2 | 13.9 | 0.00 | 0.00 | 0.00 | 38 | 1001.8 |
| 20260505201258 | 77 | 218 | 6.1 | 13.9 | 0.00 | 0.00 | 0.00 | 37 | 1002.0 |
| 20260505200758 | 77 | 188 | 2.6 | 13.9 | 0.00 | 0.00 | 0.00 | 37 | 1002.0 |
| 20260505200258 | 77 | 264 | 1.7 | 8.7 | 0.00 | 0.00 | 0.00 | 36 | 1002.0 |
| 20260505195758 | 78 | 204 | 2.6 | 13.9 | 0.00 | 0.00 | 0.00 | 36 | 1001.7 |
| 20260505195258 | 78 | 216 | 8.7 | 13.9 | 0.00 | 0.00 | 0.00 | 36 | 1001.7 |
| 20260505194758 | 77 | 271 | 4.3 | 13.9 | 0.00 | 0.00 | 0.00 | 37 | 1001.7 |
| 20260505194258 | 77 | 134 | 8.7 | 19.1 | 0.00 | 0.00 | 0.00 | 36 | 1001.7 |
| 20260505193758 | 78 | 231 | 3.5 | 14.8 | 0.00 | 0.00 | 0.00 | 35 | 1001.7 |
| 20260505193258 | 78 | 250 | 5.2 | 10.4 | 0.00 | 0.00 | 0.00 | 37 | 1001.7 |
| 20260505192758 | 78 | 203 | 12.2 | 13.9 | 0.00 | 0.00 | 0.00 | 35 | 1002.0 |
| 20260505192258 | 78 | 144 | 3.5 | 13.9 | 0.00 | 0.00 | 0.00 | 35 | 1002.0 |
| 20260505191759 | 77 | 252 | 6.1 | 13.9 | 0.00 | 0.00 | 0.00 | 35 | 1002.0 |
| 20260505191259 | 77 | 190 | 5.2 | 15.6 | 0.00 | 0.00 | 0.00 | 36 | 1002.1 |
| 20260505190759 | 78 | 176 | 13.9 | 15.6 | 0.00 | 0.00 | 0.00 | 35 | 1002.1 |
| 20260505190259 | 78 | 229 | 8.7 | 13.0 | 0.00 | 0.00 | 0.00 | 34 | 1002.1 |
| 20260505185758 | 78 | 202 | 5.2 | 15.6 | 0.00 | 0.00 | 0.00 | 34 | 1002.3 |
| 20260505185259 | 78 | 207 | 4.3 | 13.0 | 0.00 | 0.00 | 0.00 | 34 | 1002.3 |
| 20260505184758 | 79 | 185 | 6.1 | 10.4 | 0.00 | 0.00 | 0.00 | 34 | 1002.3 |
| 20260505184258 | 79 | 307 | 6.1 | 15.6 | 0.00 | 0.00 | 0.00 | 34 | 1002.4 |
| 20260505183759 | 78 | 210 | 3.5 | 15.6 | 0.00 | 0.00 | 0.00 | 34 | 1002.4 |
| 20260505183258 | 78 | 228 | 2.6 | 12.2 | 0.00 | 0.00 | 0.00 | 34 | 1002.4 |
| 20260505182759 | 78 | 231 | 5.2 | 22.6 | 0.00 | 0.00 | 0.00 | 34 | 1002.6 |
| 20260505182259 | 78 | 187 | 3.5 | 17.4 | 0.00 | 0.00 | 0.00 | 35 | 1002.6 |
| 20260505181758 | 78 | 222 | 4.3 | 10.4 | 0.00 | 0.00 | 0.00 | 34 | 1002.6 |
| 20260505181258 | 79 | 262 | 6.1 | 13.9 | 0.00 | 0.00 | 0.00 | 37 | 1002.7 |
| 20260505180758 | 78 | 203 | 1.7 | 11.3 | 0.00 | 0.00 | 0.00 | 40 | 1002.7 |
| 20260505180258 | 78 | 142 | 4.3 | 8.7 | 0.00 | 0.00 | 0.00 | 38 | 1002.7 |
| 20260505175759 | 78 | 248 | 1.7 | 13.0 | 0.00 | 0.00 | 0.00 | 37 | 1002.9 |
| 20260505175258 | 78 | 257 | 5.2 | 10.4 | 0.00 | 0.00 | 0.00 | 39 | 1002.9 |
| 20260505174759 | 77 | 173 | 3.5 | 10.4 | 0.00 | 0.00 | 0.00 | 37 | 1002.9 |
| 20260505174258 | 77 | 281 | 1.7 | 18.2 | 0.00 | 0.00 | 0.00 | 38 | 1002.9 |
| 20260505173758 | 78 | 175 | 8.7 | 14.8 | 0.00 | 0.00 | 0.00 | 40 | 1002.9 |
| 20260505173258 | 77 | 187 | 3.5 | 12.2 | 0.00 | 0.00 | 0.00 | 40 | 1002.9 |
| 20260505172758 | 77 | 219 | 2.6 | 15.6 | 0.00 | 0.00 | 0.00 | 42 | 1003.2 |
| 20260505172258 | 77 | 284 | 7.8 | 15.6 | 0.00 | 0.00 | 0.00 | 42 | 1003.2 |
| 20260505171759 | 77 | 217 | 6.1 | 8.7 | 0.00 | 0.00 | 0.00 | 43 | 1003.2 |
| 20260505171259 | 77 | 205 | 3.5 | 17.4 | 0.00 | 0.00 | 0.00 | 43 | 1003.3 |
| 20260505170758 | 76 | 220 | 6.1 | 17.4 | 0.00 | 0.00 | 0.00 | 42 | 1003.3 |
| 20260505170259 | 76 | 288 | 3.5 | 11.3 | 0.00 | 0.00 | 0.00 | 41 | 1003.3 |
| 20260505165758 | 76 | 139 | 3.5 | 12.2 | 0.00 | 0.00 | 0.00 | 42 | 1003.7 |
| 20260505165258 | 76 | 186 | 5.2 | 12.2 | 0.00 | 0.00 | 0.00 | 45 | 1003.7 |
| 20260505164759 | 76 | 294 | 5.2 | 7.8 | 0.00 | 0.00 | 0.00 | 46 | 1003.7 |
| 20260505164258 | 75 | 237 | 1.7 | 13.9 | 0.00 | 0.00 | 0.00 | 45 | 1003.8 |
| 20260505163758 | 76 | 281 | 11.3 | 13.0 | 0.00 | 0.00 | 0.00 | 44 | 1003.8 |
| 20260505163258 | 75 | 245 | 3.5 | 7.8 | 0.00 | 0.00 | 0.00 | 45 | 1003.8 |
| 20260505162758 | 75 | 184 | 3.5 | 14.8 | 0.00 | 0.00 | 0.00 | 45 | 1003.8 |
| 20260505162258 | 75 | 224 | 4.3 | 14.8 | 0.00 | 0.00 | 0.00 | 45 | 1003.8 |
| 20260505161758 | 75 | 195 | 2.6 | 13.9 | 0.00 | 0.00 | 0.00 | 44 | 1003.8 |
| 20260505161258 | 75 | 285 | 5.2 | 10.4 | 0.00 | 0.00 | 0.00 | 46 | 1004.0 |
| 20260505160758 | 74 | 227 | 1.7 | 10.4 | 0.00 | 0.00 | 0.00 | 47 | 1004.0 |
| 20260505160258 | 75 | 215 | 6.1 | 10.4 | 0.00 | 0.00 | 0.00 | 45 | 1004.0 |
| 20260505153258 | 74 | 244 | 2.6 | 10.4 | 0.00 | 0.00 | 0.00 | 48 | 1004.3 |
| 20260505152758 | 73 | 334 | 3.5 | 13.0 | 0.00 | 0.00 | 0.00 | 48 | 1004.3 |
| 20260505152258 | 73 | 271 | 10.4 | 11.3 | 0.00 | 0.00 | 0.00 | 50 | 1004.3 |
| 20260505151759 | 73 | 247 | 2.6 | 5.2 | 0.00 | 0.00 | 0.00 | 51 | 1004.3 |
| 20260505151258 | 72 | 185 | 2.6 | 9.6 | 0.00 | 0.00 | 0.00 | 51 | 1004.4 |
| 20260505150758 | 72 | 261 | 0.9 | 9.6 | 0.00 | 0.00 | 0.00 | 51 | 1004.4 |
| 20260505150258 | 71 | 221 | 1.7 | 5.2 | 0.00 | 0.00 | 0.00 | 53 | 1004.4 |
| 20260505140258 | 67 | 231 | 2.6 | 6.1 | 0.00 | 0.00 | 0.00 | 59 | 1005.1 |
| 20260505130258 | 62 | 214 | 2.6 | 7.8 | 0.00 | 0.00 | 0.00 | 65 | 1005.2 |
| 20260505124759 | 61 | 190 | 2.6 | 4.3 | 0.00 | 0.00 | 0.00 | 68 | 1005.1 |
| 20260505124258 | 60 | 181 | 2.6 | 7.8 | 0.00 | 0.00 | 0.00 | 68 | 1005.0 |
| 20260505123758 | 60 | 188 | 5.2 | 7.8 | 0.00 | 0.00 | 0.00 | 70 | 1005.0 |
| 20260505123258 | 59 | 200 | 0.9 | 5.2 | 0.00 | 0.00 | 0.00 | 70 | 1005.0 |
| 20260505122758 | 59 | 196 | 1.7 | 8.7 | 0.00 | 0.00 | 0.00 | 71 | 1004.9 |
| 20260505122258 | 59 | 195 | 1.7 | 8.7 | 0.00 | 0.00 | 0.00 | 72 | 1004.9 |
| 20260505121759 | 58 | 188 | 2.6 | 4.3 | 0.00 | 0.00 | 0.00 | 73 | 1004.9 |
| 20260505121258 | 58 | 226 | 2.6 | 6.1 | 0.00 | 0.00 | 0.00 | 72 | 1004.8 |
| 20260505120758 | 58 | 199 | 1.7 | 6.1 | 0.00 | 0.00 | 0.00 | 73 | 1004.8 |
| 20260505120258 | 57 | 169 | 1.7 | 6.1 | 0.00 | 0.00 | 0.00 | 75 | 1004.8 |
| 20260505115758 | 57 | 174 | 0.9 | 7.8 | 0.00 | 0.00 | 0.00 | 75 | 1004.8 |
| 20260505115259 | 56 | 171 | 3.5 | 7.8 | 0.00 | 0.00 | 0.00 | 77 | 1004.8 |
| 20260505114758 | 56 | 189 | 0.9 | 5.2 | 0.00 | 0.00 | 0.00 | 78 | 1004.8 |
| 20260505114258 | 55 | 155 | 0.9 | 5.2 | 0.00 | 0.00 | 0.00 | 79 | 1004.8 |
| 20260505113758 | 55 | 164 | 2.6 | 5.2 | 0.00 | 0.00 | 0.00 | 79 | 1004.8 |
| 20260505113258 | 55 | 140 | 4.3 | 5.2 | 0.00 | 0.00 | 0.00 | 80 | 1004.8 |
| 20260505112758 | 54 | 165 | 1.7 | 6.1 | 0.00 | 0.00 | 0.00 | 80 | 1004.9 |
| 20260505112258 | 54 | 160 | 0.9 | 6.1 | 0.00 | 0.00 | 0.00 | 80 | 1004.9 |
| 20260505111758 | 54 | 183 | 0.9 | 6.1 | 0.00 | 0.00 | 0.00 | 80 | 1004.9 |
| 20260505111258 | 54 | 164 | 0.9 | 5.2 | 0.00 | 0.00 | 0.00 | 81 | 1004.8 |
| 20260505110758 | 53 | 167 | 2.6 | 5.2 | 0.00 | 0.00 | 0.00 | 81 | 1004.8 |
| 20260505110258 | 53 | 150 | 1.7 | 5.2 | 0.00 | 0.00 | 0.00 | 82 | 1004.8 |
| 20260505101758 | 52 | 165 | 0.9 | 5.2 | 0.00 | 0.00 | 0.00 | 83 | 1004.4 |
| 20260505101259 | 52 | 160 | 1.7 | 2.6 | 0.00 | 0.00 | 0.00 | 83 | 1004.3 |
| 20260505100759 | 53 | 0 | 0.0 | 2.6 | 0.00 | 0.00 | 0.00 | 82 | 1004.3 |
| 20260505100258 | 53 | 128 | 0.9 | 1.7 | 0.00 | 0.00 | 0.00 | 82 | 1004.3 |
| 20260505095758 | 53 | 139 | 0.9 | 3.5 | 0.00 | 0.00 | 0.00 | 82 | 1004.3 |
| 20260505095258 | 53 | 129 | 3.5 | 3.5 | 0.00 | 0.00 | 0.00 | 82 | 1004.3 |
| 20260505094758 | 53 | 0 | 0.0 | 1.7 | 0.00 | 0.00 | 0.00 | 82 | 1004.3 |
| 20260505094258 | 53 | 153 | 0.9 | 1.7 | 0.00 | 0.00 | 0.00 | 81 | 1004.5 |
| 20260505093758 | 54 | 0 | 0.0 | 1.7 | 0.00 | 0.00 | 0.00 | 81 | 1004.5 |
| 20260505093258 | 54 | 0 | 0.0 | 1.7 | 0.00 | 0.00 | 0.00 | 80 | 1004.5 |
| 20260505092759 | 55 | 0 | 0.0 | 6.1 | 0.00 | 0.00 | 0.00 | 78 | 1004.7 |
| 20260505092259 | 55 | 145 | 5.2 | 6.1 | 0.00 | 0.00 | 0.00 | 77 | 1004.7 |
| 20260505091758 | 56 | 257 | 0.9 | 1.7 | 0.00 | 0.00 | 0.00 | 75 | 1004.7 |
| 20260505091258 | 56 | 259 | 1.7 | 2.6 | 0.00 | 0.00 | 0.00 | 75 | 1004.1 |
| 20260505090758 | 57 | 0 | 0.0 | 2.6 | 0.00 | 0.00 | 0.00 | 75 | 1004.1 |
| 20260505090258 | 57 | 252 | 1.7 | 2.6 | 0.00 | 0.00 | 0.00 | 73 | 1004.1 |
| 20260505085758 | 58 | 298 | 0.9 | 4.3 | 0.00 | 0.00 | 0.00 | 71 | 1004.1 |
| 20260505085258 | 58 | 268 | 2.6 | 4.3 | 0.00 | 0.00 | 0.00 | 68 | 1004.1 |
| 20260505084758 | 58 | 266 | 4.3 | 4.3 | 0.00 | 0.00 | 0.00 | 69 | 1004.1 |
| 20260505084258 | 58 | 246 | 2.6 | 5.2 | 0.00 | 0.00 | 0.00 | 69 | 1003.9 |
| 20260505083758 | 58 | 259 | 3.5 | 5.2 | 0.00 | 0.00 | 0.00 | 69 | 1003.9 |
| 20260505083258 | 58 | 224 | 0.9 | 3.5 | 0.00 | 0.00 | 0.00 | 69 | 1003.9 |
| 20260505082758 | 58 | 191 | 5.2 | 6.1 | 0.00 | 0.00 | 0.00 | 68 | 1003.6 |
| 20260505082258 | 58 | 176 | 2.6 | 6.1 | 0.00 | 0.00 | 0.00 | 68 | 1003.6 |
| 20260505081758 | 58 | 169 | 0.9 | 3.5 | 0.00 | 0.00 | 0.00 | 68 | 1003.6 |
| 20260505081259 | 58 | 217 | 1.7 | 10.4 | 0.00 | 0.00 | 0.00 | 68 | 1003.7 |
| 20260505080758 | 58 | 231 | 3.5 | 8.7 | 0.00 | 0.00 | 0.00 | 68 | 1003.7 |
| 20260505080258 | 58 | 201 | 1.7 | 6.1 | 0.00 | 0.00 | 0.00 | 68 | 1003.7 |
| 20260505075758 | 58 | 194 | 4.3 | 8.7 | 0.00 | 0.00 | 0.00 | 68 | 1003.6 |
| 20260505075258 | 57 | 194 | 3.5 | 8.7 | 0.00 | 0.00 | 0.00 | 68 | 1003.6 |
| 20260505074758 | 57 | 185 | 1.7 | 4.3 | 0.00 | 0.00 | 0.00 | 68 | 1003.6 |
| 20260505074258 | 57 | 136 | 3.5 | 7.8 | 0.00 | 0.00 | 0.00 | 68 | 1003.9 |
| 20260505073758 | 57 | 179 | 4.3 | 7.8 | 0.00 | 0.00 | 0.00 | 67 | 1003.9 |
| 20260505073258 | 57 | 196 | 3.5 | 6.1 | 0.00 | 0.00 | 0.00 | 67 | 1003.9 |
| 20260505072758 | 57 | 191 | 1.7 | 8.7 | 0.00 | 0.00 | 0.00 | 67 | 1003.7 |
| 20260505072259 | 58 | 188 | 1.7 | 8.7 | 0.00 | 0.00 | 0.00 | 66 | 1003.7 |
| 20260505071758 | 58 | 195 | 5.2 | 6.1 | 0.00 | 0.00 | 0.00 | 66 | 1003.7 |
| 20260505071258 | 58 | 205 | 2.6 | 6.1 | 0.00 | 0.00 | 0.00 | 66 | 1003.7 |
| 20260505070759 | 58 | 141 | 2.6 | 5.2 | 0.00 | 0.00 | 0.00 | 65 | 1003.7 |
| 20260505070258 | 58 | 259 | 5.2 | 5.2 | 0.00 | 0.00 | 0.00 | 65 | 1003.7 |
| 20260505065758 | 58 | 194 | 0.9 | 8.7 | 0.00 | 0.00 | 0.00 | 65 | 1003.7 |
| 20260505065258 | 58 | 188 | 5.2 | 8.7 | 0.00 | 0.00 | 0.00 | 65 | 1003.7 |
| 20260505064758 | 57 | 195 | 2.6 | 6.1 | 0.00 | 0.00 | 0.00 | 64 | 1003.7 |
| 20260505064258 | 58 | 192 | 0.9 | 6.1 | 0.00 | 0.00 | 0.00 | 64 | 1003.8 |
| 20260505063758 | 58 | 226 | 1.7 | 5.2 | 0.00 | 0.00 | 0.00 | 63 | 1003.8 |
| 20260505063258 | 58 | 200 | 2.6 | 4.3 | 0.00 | 0.00 | 0.00 | 63 | 1003.8 |
| 20260505062758 | 58 | 205 | 1.7 | 8.7 | 0.00 | 0.00 | 0.00 | 63 | 1003.9 |
| 20260505062258 | 58 | 204 | 1.7 | 5.2 | 0.00 | 0.00 | 0.00 | 63 | 1003.9 |
| 20260505061758 | 58 | 217 | 2.6 | 4.3 | 0.00 | 0.00 | 0.00 | 62 | 1003.9 |
| 20260505061258 | 58 | 203 | 2.6 | 7.8 | 0.00 | 0.00 | 0.00 | 62 | 1003.7 |
| 20260505060759 | 58 | 214 | 0.9 | 6.1 | 0.00 | 0.00 | 0.00 | 62 | 1003.7 |
| 20260505060258 | 58 | 232 | 0.9 | 6.1 | 0.00 | 0.00 | 0.00 | 62 | 1003.7 |
| 20260505055758 | 58 | 205 | 9.6 | 10.4 | 0.00 | 0.00 | 0.00 | 61 | 1003.6 |
| 20260505055258 | 58 | 300 | 0.9 | 9.6 | 0.00 | 0.00 | 0.00 | 61 | 1003.6 |
| 20260505054758 | 58 | 184 | 1.7 | 9.6 | 0.00 | 0.00 | 0.00 | 61 | 1003.6 |
| 20260505054258 | 58 | 194 | 5.2 | 9.6 | 0.00 | 0.00 | 0.00 | 61 | 1003.7 |
| 20260505053758 | 58 | 184 | 4.3 | 8.7 | 0.00 | 0.00 | 0.00 | 60 | 1003.7 |
| 20260505053258 | 58 | 169 | 2.6 | 5.2 | 0.00 | 0.00 | 0.00 | 60 | 1003.7 |
| 20260505052759 | 58 | 182 | 0.9 | 12.2 | 0.00 | 0.00 | 0.00 | 60 | 1003.7 |
| 20260505052258 | 58 | 132 | 1.7 | 8.7 | 0.00 | 0.00 | 0.00 | 60 | 1003.7 |
| 20260505051758 | 58 | 169 | 2.6 | 8.7 | 0.00 | 0.00 | 0.00 | 59 | 1003.7 |
| 20260505051258 | 58 | 174 | 1.7 | 12.2 | 0.00 | 0.00 | 0.00 | 59 | 1003.7 |
| 20260505050758 | 58 | 127 | 3.5 | 12.2 | 0.00 | 0.00 | 0.00 | 59 | 1003.7 |
| 20260505050258 | 58 | 139 | 0.9 | 9.6 | 0.00 | 0.00 | 0.00 | 58 | 1003.7 |
| 20260505041258 | 58 | 155 | 3.5 | 11.3 | 0.00 | 0.00 | 0.00 | 57 | 1003.7 |
| 20260505040758 | 58 | 157 | 3.5 | 10.4 | 0.00 | 0.00 | 0.00 | 57 | 1003.7 |
| 20260505040258 | 58 | 184 | 2.6 | 8.7 | 0.00 | 0.00 | 0.00 | 56 | 1003.7 |
| 20260505035758 | 58 | 165 | 5.2 | 8.7 | 0.00 | 0.00 | 0.00 | 57 | 1003.7 |
| 20260505035258 | 58 | 166 | 1.7 | 6.1 | 0.00 | 0.00 | 0.00 | 56 | 1003.7 |
| 20260505034759 | 58 | 178 | 3.5 | 6.1 | 0.00 | 0.00 | 0.00 | 57 | 1003.7 |
| 20260505034258 | 58 | 175 | 1.7 | 8.7 | 0.00 | 0.00 | 0.00 | 56 | 1003.6 |
| 20260505033758 | 59 | 175 | 1.7 | 8.7 | 0.00 | 0.00 | 0.00 | 55 | 1003.6 |
| 20260505033258 | 59 | 155 | 3.5 | 5.2 | 0.00 | 0.00 | 0.00 | 55 | 1003.6 |
| 20260505032759 | 59 | 183 | 2.6 | 11.3 | 0.00 | 0.00 | 0.00 | 55 | 1003.7 |
| 20260505032258 | 59 | 151 | 3.5 | 11.3 | 0.00 | 0.00 | 0.00 | 54 | 1003.7 |
| 20260505031758 | 59 | 212 | 9.6 | 9.6 | 0.00 | 0.00 | 0.00 | 54 | 1003.7 |
| 20260505031258 | 60 | 168 | 1.7 | 11.3 | 0.00 | 0.00 | 0.00 | 54 | 1003.9 |
| 20260505030758 | 60 | 160 | 1.7 | 11.3 | 0.00 | 0.00 | 0.00 | 53 | 1003.9 |
| 20260505030258 | 60 | 120 | 3.5 | 9.6 | 0.00 | 0.00 | 0.00 | 53 | 1003.9 |
| 20260505025758 | 60 | 183 | 2.6 | 9.6 | 0.00 | 0.00 | 0.00 | 52 | 1003.9 |
| 20260505025258 | 60 | 162 | 2.6 | 9.6 | 0.00 | 0.00 | 0.00 | 52 | 1003.9 |
| 20260505024759 | 61 | 162 | 4.3 | 8.7 | 0.00 | 0.00 | 0.00 | 52 | 1003.9 |
| 20260505024259 | 61 | 174 | 5.2 | 11.3 | 0.00 | 0.00 | 0.00 | 51 | 1004.1 |
| 20260505023758 | 61 | 150 | 6.1 | 8.7 | 0.00 | 0.00 | 0.00 | 50 | 1004.1 |
| 20260505023258 | 61 | 138 | 5.2 | 8.7 | 0.00 | 0.00 | 0.00 | 51 | 1004.1 |
| 20260505022759 | 61 | 178 | 1.7 | 10.4 | 0.00 | 0.00 | 0.00 | 50 | 1004.2 |
| 20260505022258 | 61 | 150 | 7.0 | 9.6 | 0.00 | 0.00 | 0.00 | 51 | 1004.2 |
| 20260505021758 | 61 | 162 | 2.6 | 9.6 | 0.00 | 0.00 | 0.00 | 51 | 1004.2 |
| 20260505021258 | 61 | 181 | 1.7 | 12.2 | 0.00 | 0.00 | 0.00 | 50 | 1004.4 |
| 20260505020758 | 62 | 209 | 2.6 | 12.2 | 0.00 | 0.00 | 0.00 | 49 | 1004.4 |
| 20260505020258 | 62 | 181 | 3.5 | 10.4 | 0.00 | 0.00 | 0.00 | 49 | 1004.4 |